User: anonymous
Location: Simi Valley
(34.2690°N, 118.7810°W)
Time: 03:42:40
(UTC-07:00)
Language:

SAR-Lupe-1 - Orbit

View from above orbital plane
View from above orbital plane
View from above satellite
View from above satellite

Ground track
Ground track

The orbit data is extracted from the following two-line orbital elements,

1 29658U 06060A   14203.06754299 -.00000160  00000-0 -59645-5 0    00
2 29658  98.1239 138.4621 0003000 180.5973 179.4026 15.27465281    05
Epoch (UTC): 22 July 2014 01:37:15
Eccentricity: 0.0003000
inclination: 98.1239°
perigee height: 481 km
apogee height: 485 km
right ascension of ascending node: 138.4621°
argument of perigee: 180.5973°
revolutions per day: 15.27465281
mean anomaly at epoch: 179.4026°
orbit number at epoch: 0

The dashed part of the orbit path shows where the satellite is in the earth's shadow,  

DLR